Simultaneous Nadir Overpasses (SNOs) Predictions

Prediction of SNOs between AQUA and NOAA-19 Satellite Orbit:

Table of predicted SNOs for the next 14.0 days since TLE Epoch: 4/26/2019
Index Date (AQUA) Time (AQUA) Lat,Lon (AQUA) SZA (AQUA ) Date (NOAA-19) Time (NOAA-19) Lat,Lon (NOAA-19) SZA (NOAA-19 ) Distance(km) Time Diff (sec)
1 04/28/2019 05:46:30 -80.46,-121.21 111.95 04/28/2019 05:45:35 -80.46,-121.21 111.93 0.41 55
2 04/28/2019 06:35:58 80.48, 46.22 68.08 04/28/2019 06:36:40 80.46, 46.13 68.06 2.60 42
3 04/30/2019 11:20:14 80.45, -24.56 67.34 04/30/2019 11:19:07 80.45, -24.64 67.38 1.40 67
4 04/30/2019 12:09:40 -80.46, 142.99 112.66 04/30/2019 12:10:02 -80.47, 142.92 112.66 1.46 22
5 05/02/2019 17:43:24 80.46,-120.38 66.66 05/02/2019 17:43:33 80.47,-120.29 66.66 2.29 9
6 05/04/2019 23:17:07 -80.47, -23.94 113.98 05/04/2019 23:16:57 -80.45, -24.01 113.98 2.61 10
7 05/07/2019 04:50:50 80.44, 72.93 65.34 05/07/2019 04:50:27 80.45, 72.81 65.38 2.82 23
8 05/07/2019 05:40:17 -80.47,-119.79 114.61 05/07/2019 05:41:24 -80.45,-119.92 114.64 3.30 67
9 05/09/2019 10:24:33 -80.45, 169.36 115.24 05/09/2019 10:23:51 -80.44, 169.35 115.23 1.01 42




NCC Satellite Simultaneous Nadir Overpasses (SNOs) Prediction Service
